This is the latest recevied weather packets stored in our database for station/object KE0WPC. If no packets are shown the sender has not sent any weather packets the latest 1 day(s).
| Time | Temp. | Humidity | Pressure | Rain* | Wind** | Luminosity | Snow |
|---|---|---|---|---|---|---|---|
| 1778102181 | 10° C | 40% | 1016.5 hPa | - | - | - | - |
| 1778101878 | 10° C | 40% | 1016.5 hPa | - | - | - | - |
| 1778096724 | 9.44° C | 44% | 1017.6 hPa | - | - | - | - |
| 1778096421 | 9.44° C | 44% | 1017.2 hPa | - | - | - | - |
| 1778095512 | 8.89° C | 44% | 1017.2 hPa | - | - | - | - |
| 1778095208 | 8.89° C | 44% | 1017.6 hPa | - | - | - | - |
| 1778094905 | 9.44° C | 44% | 1017.6 hPa | - | - | - | - |
| 1778092175 | 8.33° C | 46% | 1017.6 hPa | - | - | - | - |
| 1778090964 | 7.78° C | 47% | 1017.9 hPa | - | - | - | - |
| 1778090054 | 7.78° C | 48% | 1017.9 hPa | - | - | - | - |
| 1778087322 | 7.22° C | 49% | 1018.2 hPa | - | - | - | - |
| 1778086105 | 7.22° C | 50% | 1018.2 hPa | - | - | - | - |
| 1778085802 | 7.22° C | 50% | 1018.7 hPa | - | - | - | - |
| 1778081330 | 6.11° C | 54% | 1018.7 hPa | - | - | - | - |
| 1778080422 | 5° C | 54% | 1018.7 hPa | - | - | - | - |
| 1778079816 | 5.56° C | 55% | 1018.7 hPa | - | - | - | - |
| 1778079210 | 5° C | 56% | 1018.7 hPa | - | - | - | - |
| 1778078907 | 5° C | 58% | 1019 hPa | - | - | - | - |
| 1778078603 | 4.44° C | 58% | 1018.7 hPa | - | - | - | - |
| 1778077998 | 3.89° C | 58% | 1018.7 hPa | - | - | - | - |
| 1778077394 | 3.89° C | 58% | 1018.7 hPa | - | - | - | - |
| 1778076790 | 3.89° C | 59% | 1018.7 hPa | - | - | - | - |
| 1778076488 | 3.33° C | 59% | 1018.7 hPa | - | - | - | - |
| 1778075274 | 2.78° C | 62% | 1018.7 hPa | - | - | - | - |
| 1778074668 | 2.78° C | 62% | 1018.7 hPa | - | - | - | - |
* Rain since midnight (hover to see other rain measurements)
** Current wind speed in m/s (hover to see current wind gust speed)